TimeAST,TemperatureF,Dew PointF,Humidity,Sea Level PressureIn,VisibilityMPH,Wind Direction,Wind SpeedMPH,Gust SpeedMPH,PrecipitationIn,Events,Conditions,WindDirDegrees,DateUTC
12:00 AM,78.8,75.2,89,29.86,6.2,East,3.5,-,N/A,,Partly Cloudy,100,2012-11-16 04:00:00
1:00 AM,78.8,75.2,89,29.83,6.2,East,4.6,-,N/A,,Partly Cloudy,100,2012-11-16 05:00:00
2:00 AM,79,76,87,29.83,12,Calm,Calm,,,,Widespread Dust,,2012-11-16 06:00:00
2:00 AM,78.8,75.2,89,29.83,6.2,Calm,Calm,-,N/A,,Scattered Clouds,0,2012-11-16 06:00:00
3:00 AM,78.8,75.2,89,29.83,6.2,Calm,Calm,-,N/A,,Partly Cloudy,0,2012-11-16 07:00:00
4:00 AM,78.8,75.2,89,29.83,6.2,ENE,3.5,-,N/A,,Partly Cloudy,70,2012-11-16 08:00:00
5:00 AM,77,75,90,29.84,9,Calm,Calm,,,,Widespread Dust,,2012-11-16 09:00:00
5:00 AM,77.0,75.2,94,29.83,6.2,Calm,Calm,-,N/A,,Scattered Clouds,0,2012-11-16 09:00:00
6:00 AM,78.8,75.2,89,29.83,6.2,ENE,4.6,-,N/A,,Mostly Cloudy,70,2012-11-16 10:00:00
7:00 AM,80.6,77.0,89,29.86,6.2,Variable,2.3,-,N/A,,Mostly Cloudy,0,2012-11-16 11:00:00
8:00 AM,83,78,81,29.90,9,ENE,3.5,,,,Partly Cloudy,60,2012-11-16 12:00:00
8:00 AM,82.4,78.8,89,29.89,6.2,ENE,3.5,-,N/A,,Mostly Cloudy,60,2012-11-16 12:00:00
9:00 AM,86.0,78.8,79,29.89,6.2,East,8.1,-,N/A,,Mostly Cloudy,100,2012-11-16 13:00:00
10:00 AM,87.8,77.0,70,29.89,6.2,East,15.0,-,N/A,,Scattered Clouds,100,2012-11-16 14:00:00
11:00 AM,87,77,65,29.89,16,ESE,18.4,,,,Partly Cloudy,120,2012-11-16 15:00:00
11:00 AM,87.8,77.0,70,29.89,6.2,ESE,18.4,-,N/A,,Mostly Cloudy,120,2012-11-16 15:00:00
12:00 PM,87.8,77.0,70,29.86,6.2,ESE,19.6,-,N/A,,Mostly Cloudy,110,2012-11-16 16:00:00
1:00 PM,87.8,78.8,75,29.86,6.2,SE,16.1,-,N/A,,Scattered Clouds,140,2012-11-16 17:00:00
2:00 PM,87,77,66,29.84,16,ESE,17.3,,,,Partly Cloudy,120,2012-11-16 18:00:00
2:00 PM,86.0,77.0,74,29.83,6.2,ESE,17.3,-,N/A,,Scattered Clouds,120,2012-11-16 18:00:00
3:00 PM,86.0,77.0,74,29.80,6.2,ESE,15.0,-,N/A,,Partly Cloudy,120,2012-11-16 19:00:00
4:00 PM,86.0,77.0,74,29.80,6.2,ESE,13.8,-,N/A,,Partly Cloudy,120,2012-11-16 20:00:00
5:00 PM,84,76,71,29.83,17,ESE,11.5,,,,Scattered Clouds,120,2012-11-16 21:00:00
5:00 PM,84.2,75.2,74,29.83,6.2,ESE,11.5,-,N/A,,Partly Cloudy,120,2012-11-16 21:00:00
6:00 PM,82.4,75.2,79,29.83,6.2,East,8.1,-,N/A,,Scattered Clouds,90,2012-11-16 22:00:00
7:00 PM,82.4,75.2,79,29.83,6.2,ESE,5.8,-,N/A,,Scattered Clouds,110,2012-11-16 23:00:00
8:00 PM,82,75,75,29.86,17,ESE,6.9,,,,Scattered Clouds,110,2012-11-17 00:00:00
8:00 PM,82.4,75.2,79,29.86,6.2,ESE,6.9,-,N/A,,Partly Cloudy,110,2012-11-17 00:00:00
9:00 PM,80.6,75.2,84,29.86,6.2,ENE,3.5,-,N/A,,Partly Cloudy,70,2012-11-17 01:00:00
10:00 PM,80.6,75.2,84,29.89,6.2,Calm,Calm,-,N/A,,Scattered Clouds,0,2012-11-17 02:00:00
11:00 PM,80.6,77.0,89,29.89,6.2,Calm,Calm,-,N/A,,Scattered Clouds,0,2012-11-17 03:00:00